{"data":{"norad_id":48790,"epoch":"2026-05-25T00:50:57.653664Z","epoch_age_seconds":79097,"freshness":"FRESH","line1":"1 48790U 21045Z   26145.03538951 -.00000009  00000+0 -58139-4 0  9992","line2":"2 48790  87.8999 263.8049 0001691  92.1027 268.0297 13.15550339241398","mean_motion":13.15550339,"eccentricity":0.0001691,"inclination_deg":87.8999,"raan_deg":263.8049,"arg_perigee_deg":92.1027,"mean_anomaly_deg":268.0297,"bstar":-5.8139e-5,"rev_number":24139,"period_min":109.45989349937,"perigee_km":1200.4821343391,"apogee_km":1203.045656822,"semimajor_km":7579.9008955805,"source":"CELESTRAK","updated_at":"2026-05-25T13:38:22.446426Z"}}